Scott AFB, IL

9:01 PM CST on February 24, 2017 (GMT -0600)
Scott Air Force Base-Midamerica

Weather History for KBLV - October, 2013

Change the Weather History Date:

Monday, October 7, 2013

  Actual Average Record
Temperature  
Mean Temperature 59 °F -  
Max Temperature 68 °F 70 °F 92 °F (2007)
Min Temperature 49 °F 43 °F 28 °F (1988)
Degree Days  
Heating Degree Days 6    
Growing Degree Days 9 (Base 50)    
Moisture  
Dew Point 47 °F    
Average Humidity 75    
Maximum Humidity 99    
Minimum Humidity 48    
Precipitation  
Precipitation 0.00 in - - ()
Sea Level Pressure  
Sea Level Pressure 30.02 in    
Wind  
Wind Speed 10 mph (WNW)    
Max Wind Speed 16 mph    
Max Gust Speed 20 mph    
Visibility 10 miles    
Events      
Averages and records for this station are not official NWS values.
T = Trace of Precipitation, MM = Missing Value Source: NWS Daily Summary

Daily Weather History Graph

Daily Weather History Graph

Search for Another Location

Airport or City:

Trip Planner

Search our weather history database for the weather conditions in past years. The results will help you decide how hot, cold, wet, or windy it might be!

Date:

Astronomy

Oct. 07, 2013 Rise Set
Actual Time 7:00 AM CDT 6:32 PM CDT
Civil Twilight 6:34 AM CDT 6:59 PM CDT
Nautical Twilight 6:03 AM CDT 7:29 PM CDT
Astronomical Twilight 5:32 AM CDT 8:00 PM CDT
Moon 9:48 AM CDT (10/7) 8:19 PM CDT (10/7)
Length of Visible Light 12h 24m
Length of Day
11h 31m
Waxing Crescent, 9% of the Moon is Illuminated
Oct 7
Waxing Crescent
Oct 11
First Quarter
Oct 18
Full
Oct 26
Last Quarter
Nov 3
New

Hourly Weather History & Observations

Time (CDT) Temp. Dew Point Humidity Pressure Visibility Wind Dir Wind Speed Gust Speed Precip Events Conditions
12:38 AM 53.6 °F 46.4 °F 77% 29.90 in 10.0 mi West 15.0 mph 19.6 mph N/A   Overcast
12:58 AM 52.7 °F 45.9 °F 78% 29.91 in 10.0 mi West 12.7 mph - N/A   Scattered Clouds
1:53 AM 51.8 °F 46.4 °F 82% 29.91 in 10.0 mi West 15.0 mph - N/A   Mostly Cloudy
1:58 AM 52.0 °F 46.0 °F 80% 29.93 in 10.0 mi West 12.7 mph - N/A   Mostly Cloudy
2:23 AM 51.8 °F 46.4 °F 82% 29.92 in 10.0 mi West 11.5 mph - N/A   Scattered Clouds
2:28 AM 51.8 °F 46.4 °F 82% 29.92 in 10.0 mi West 9.2 mph - N/A   Mostly Cloudy
2:58 AM 51.3 °F 46.2 °F 83% 29.93 in 10.0 mi WNW 10.4 mph - N/A   Overcast
3:13 AM 51.8 °F 46.4 °F 82% 29.92 in 10.0 mi WNW 8.1 mph - N/A   Overcast
3:58 AM 51.8 °F 46.2 °F 81% 29.94 in 10.0 mi West 6.9 mph - N/A   Overcast
4:38 AM 51.8 °F 46.4 °F 82% 29.95 in 10.0 mi WNW 11.5 mph - N/A   Mostly Cloudy
4:55 AM 51.8 °F 46.4 °F 82% 29.96 in 10.0 mi WNW 10.4 mph - N/A   Overcast
5:54 AM 51.8 °F 46.4 °F 82% 29.97 in 10.0 mi WNW 6.9 mph - N/A   Overcast
5:58 AM 52.0 °F 46.6 °F 82% 29.98 in 10.0 mi WNW 6.9 mph - N/A   Overcast
6:03 AM 51.8 °F 46.4 °F 82% 29.97 in 10.0 mi WNW 6.9 mph - N/A   Overcast
6:58 AM 52.2 °F 46.8 °F 82% 30.01 in 10.0 mi WNW 8.1 mph - N/A   Overcast
7:58 AM 52.7 °F 46.9 °F 81% 30.03 in 10.0 mi WNW 10.4 mph - N/A   Mostly Cloudy
8:53 AM 55.4 °F 46.4 °F 72% 30.04 in 10.0 mi NW 16.1 mph - N/A   Mostly Cloudy
8:58 AM 55.4 °F 46.6 °F 72% 30.06 in 10.0 mi NW 15.0 mph 19.6 mph N/A   Mostly Cloudy
9:58 AM 56.7 °F 46.8 °F 69% 30.08 in 10.0 mi NW 12.7 mph - N/A   Overcast
10:58 AM 56.5 °F 46.9 °F 70% 30.10 in 10.0 mi WNW 11.5 mph - N/A   Overcast
11:58 AM 60.1 °F 47.8 °F 64% 30.11 in 10.0 mi WNW 8.1 mph - N/A   Scattered Clouds
12:58 PM 63.0 °F 48.0 °F 58% 30.09 in 10.0 mi NNW 10.4 mph 19.6 mph N/A   Clear
1:58 PM 66.4 °F 48.2 °F 52% 30.08 in 10.0 mi NNW 8.1 mph - N/A   Clear
2:58 PM 67.6 °F 47.7 °F 49% 30.08 in 10.0 mi West 10.4 mph - N/A   Clear
3:58 PM 68.4 °F 48.0 °F 48% 30.08 in 10.0 mi NW 5.8 mph - N/A   Clear
4:58 PM 68.4 °F 47.7 °F 48% 30.07 in 10.0 mi NW 3.5 mph - N/A   Clear
5:58 PM 66.4 °F 47.3 °F 50% 30.08 in 10.0 mi West 5.8 mph - N/A   Clear
6:58 PM 59.4 °F 50.9 °F 74% 30.09 in 10.0 mi Calm Calm - N/A   Clear
7:58 PM 56.5 °F 50.9 °F 82% 30.11 in 10.0 mi Calm Calm - N/A   Clear
8:58 PM 52.7 °F 50.4 °F 92% 30.12 in 10.0 mi Calm Calm - N/A   Clear
9:58 PM 50.9 °F 49.5 °F 95% 30.14 in 10.0 mi NW 1.2 mph - N/A   Clear
10:58 PM 50.0 °F 48.7 °F 95% 30.15 in 10.0 mi North - - N/A   Clear
11:58 PM 49.6 °F 49.5 °F 99% 30.15 in 10.0 mi Calm Calm - N/A   Clear